www.pogodaiklimat.ru

Погода и климат >> Архив погоды >> Мексика >> Temosachic


ПОГОДА в Temosachic

  • Прогноз погоды в Temosachic
  • Монитор погоды в Temosachic
  • Климат города

АРХИВ ПОГОДЫ в Temosachic

Время (UTC), дата Ветер
(напр.,м/с)
 
Видим.   Явления Облачность Т
(С)
Тd
(С)
f
(%)
Тe
(С)
Тes
(С)
Комфортность P
(гПа)
Po
(гПа)
Тmin
(С)
Tmax
(С)
R
(мм)
R24
(мм)
S
(см)
12 18.05 штиль 0 1000 м ясно +4.4 +1.6 82 +3 +3 1009.4 813.1 +4.4
15 18.05 штиль 0 2000 м ясно +12.2 +5.0 61 +12 +21 1013.1 813.6
21 18.05 ЮЗ 6 2000 м в посл. час морось ясно +27.2 +9.0 32 +27 +34 жарко 1011.5 812.8
00 19.05 ЮЗ 3 2000 м ясно +26.2 +8.9 34 +27 +30 жарко 1001.5 810.3 +3.6 +29.2
03 19.05 З 1 600 м ясно +19.4 +6.2 42 +21 +21 комфорт 1000.5 811.4
12 19.05 штиль 0 1000 м ясно +3.0 +2.2 94 +2 +2 1011.1 813.5 +3.0 +29.2
15 19.05 штиль 0 2000 м ясно +10.2 +6.3 77 +10 +19 1014.6 813.9
21 19.05 ЮЗ 7 2000 м ясно +29.0 +16.0 45 +32 +37 душно 1007.4 811.2
00 20.05 ЮЗ 4 2000 м ясно +27.6 +12.0 38 +29 +31 жарко 1002.6 810.7 +2.0 +29.2
12 20.05 штиль 0 600 м дым ясно +2.0 -1.1 80 +1 +1 1011.9 814.4 -1.1 +29.2
15 20.05 С 1 2000 м ясно +10.2 -0.9 46 +10 +18 1017.9 816.3
18 20.05 Ю 2 2000 м дым ясно +21.2 +9.0 46 +22 +43 комфорт 1016.1 814.8 +2.0 +21.2
00 21.05 СЗ 3 1000 м ясно +29.0 +12.8 37 +30 +34 жарко 1004.0 811.2 +0.6 +31.0
12 21.05 штиль 0 1000 м ясно +5.4 +4.3 93 +4 +4 1009.7 813.6 +5.4 +31.0
15 21.05 штиль 0 2000 м ясно +12.8 +8.1 73 +12 +21 1013.5 814.4
00 22.05 З 8 1000 м ясно +29.4 +14.4 40 +31 +32 жарко 1000.0 809.8 +4.4 +30.2
03 22.05 СЗ 3 500 м ясно +23.2 +15.1 60 +27 +27 душно 999.2 811.3
12 22.05 штиль 0 1000 м ясно +5.0 +2.6 84 +4 +4 1010.2 814.1 +5.0
15 22.05 штиль 0 2000 м ясно +12.4 +8.7 78 +12 +21 1014.7 815.2
18 22.05 В 1 2000 м дым ясно +23.4 +10.3 44 1012.1 813.7 +3.6 +23.4
21 22.05 Ю 3 2000 м ясно +28.4 +10.8 33 +29 +44 жарко 1007.0 811.6
00 23.05 ЮЗ 3 1000 м ясно +27.8 +13.4 41 +30 +33 жарко 1002.5 810.8 +3.6 +30.0
03 23.05 СЗ 3 500 м ясно +22.0 +15.6 67 +26 +26 душно 1002.1 812.7
12 23.05 штиль 0 1000 м ясно +5.0 +2.6 84 +4 +4 1011.0 814.5 +5.0 +30.0
15 23.05 штиль 0 2000 м ясно +13.4 +9.1 75 +13 +22 1015.8 816.1
18 23.05 В 1 2000 м дым ясно +23.0 +8.1 38 +24 +48 комфорт 1014.2 815.8 +3.8 +23.0
21 23.05 Ю 2 2000 м ясно +29.0 +12.0 35 +30 +48 жарко 1009.5 813.8
00 24.05 З 3 1000 м ясно +29.2 +11.9 34 +30 +33 жарко 1005.1 813.4 +3.8 +31.0
03 24.05 З 2 500 м ясно +22.8 +14.3 59 +26 +26 жарко 1004.6 815.2
12 24.05 штиль 0 1000 м ясно +5.0 +2.2 82 +4 +4 1014.7 817.7 +5.0 +31.0
15 24.05 штиль 0 2000 м 4/0
[Cs]
+14.6 +9.4 71 +14 +23 1018.8 818.8
18 24.05 С 1 2000 м дым 4/0
[Cs]
+24.0 +6.0 31 +24 +46 комфорт 1017.9 818.8 +4.6 +24.0
21 24.05 З 2 2000 м 5/0
[Cs]
+29.6 +12.4 35 +31 +47 жарко 1013.1 816.9
00 25.05 СЗ 3 1000 м ясно +29.4 +12.5 35 +30 +34 жарко 1007.6 815.7 +4.6 +32.0
03 25.05 З 3 500 м 4/0
[Cs]
+23.0 +14.1 57 +26 +26 жарко 1006.7 817.2

 

Местоположение метеостанции Temosachic (Мексика): широта 28.95 долгота -107.80 высота над уровнем моря 1932 м.

В архиве по умолчанию представлена погода в Temosachic за последнюю неделю. Архивные данные за месяц целиком и за предыдущие месяцы, начиная с января 2011 года, Вы можете получить, выбрав интересующий диапазон дат из раскрывающегося списка и нажав кнопку "Ввод!".


*Определитесь, кто Вы:
робот инопланетянин человек

Внимание! Время в таблицах - всемирное. Для получения местного времени необходимо прибавить поправку, которая в Temosachic равна -7 ч.

Смотрите также архив погоды в соседних городах и на ближайших метеорологических станциях:

Погода в Nueva Casas Grandes (Мексика) (158 км)
Погода в Chihuahua (Мексика) (170 км)
Погода в Chihuahua University (Мексика) (179 км)
Погода в Pilares de Nacoz (Мексика) (241 км)
Погода в Choix (Мексика) (250 км)
Погода в Ciudad Obregon (Мексика) (264 км)
Погода в Empalme (Мексика) (305 км)
Погода в Hermosillo la Magna (Мексика) (307 км)
Погода в Hidalgo del Parral (Мексика) (312 км)
Погода в Hermosillo (Мексика) (316 км)

Пояснения к столбцам:

Ветер - указаны скорость ветра в м/с - средняя за 10 мин, порывы в срок и между сроками (в фигурных скобках) и направление, откуда дует ветер: С - северный, СВ - северо-восточный, В - восточный, ЮВ - юго-восточный, Ю - южный, ЮЗ - юго-западный, З - западный, СЗ - северо-западный.
Видимость - горизонтальная дальность видимости в метрах или километрах. При видимости от 1 до 10 км при отсутствии осадков обычно наблюдается дымка, при ухудшении видимости до 1 км и менее - туман. В сухую погоду видимость может ухудшаться дымом, пылью или мглою.
Явления - указаны атмосферные явления, наблюдавшиеся в срок или в последний час перед сроком; фигурными скобками обозначены явления, наблюдавшиеся между сроками (за 1-3 часа до срока); квадратными скобками обозначены град или гололедные отложения с указанием их диаметра в мм.
Облачность - указаны через наклонную черту общая и нижняя облачность в баллах и высота нижней границы облаков в метрах; квадратными скобками обозначены формы облаков: Ci - перистые, Cs - перисто-слоистые, Cc - перисто-кучевые, Ac - высококучевые, As - высокослоистые, Sc - слоисто-кучевые, Ns - слоисто-дождевые, Cu - кучевые, Cb - кучево-дождевые. Подробнее классификацию облаков см. в Атласе облаков (PDF).
T - Температура воздуха - температура, измеренная на высоте 2 м над землей.
Td - Температура точки росы - температура, при понижении до которой содержащийся в воздухе водяной пар достигнет насыщения.
f - Относительная влажность воздуха - влажноcть воздуха, измеренная на высоте 2 м над землей.
Te - Эффективная температура - температура, которую ощущает одетый по сезону человек в тени. Характеристика душности погоды. При расчете учитывается влияние влажности воздуха и скорости ветра на теплоощущения человека.
Tes - Эффективная температура на солнце - температура, которую ощущает человек, с поправкой на солнечный нагрев. Характеристика знойности погоды. Зависит от высоты солнца над горизонтом, облачности и скорости ветра. Ночью, в пасмурную погоду, а также при ветре 12 м/с и более поправка равна нулю.
P - Атмосферное давление - приведенное к уровню моря атмосферное давление.
Po - Атмосферное давление - измеренное на уровне метеостанции атмосферное давление.
Tmin - Минимальная температура - минимум температуры воздуха на высоте 2 м над землей.
Tmax - Максимальная температура - максимум температуры воздуха на высоте 2 м над землей.
R - Количество осадков - Количество выпавших осадков за период времени, мм. При наведении курсора мыши на число - период времени, за который выпало указанное количество осадков.
R24 - Количество осадков - Количество выпавших осадков за 24 часа, мм.
S - Снежный покров - Высота снежного покрова, см. При наведении курсора мыши на число - состояние снежного покрова и степень покрытия местности в баллах.